SCP
-0 -0 -0 -0 -0 -0 -0 -0 -0 -0 -0 -0 -0 -0 -0 -0 0 0 -0 0 0 0 0 -0 0 0 0 0 0 0 0 0 0 0 0 0 0 0 0 0 0 0 0 0 0
-0 -0 -0 -0 -0 -0 -0 -0 -0 -0 -0 0 0 0 -0 0 0 -0 0 0 -0 -0 -0 -0 0 0 0 0 0 0 0 0 0 0 0 0 0 0 0 0 0 0 0 0 0
-0 -0 -0 -0 -0 -0 -0 -0 -0 0 0 0 0 0 -0 0 0 0 0 0 -0 0 0 0 0 0 0 0 0 0 0 0 0 0 0 0 0 0 0 0 0 0 0 0 0
-0 -0 -0 -0 -0 -0 -0 0 0 0 0 0 -0 -0 -0 0 -0 0 0 -0 -0 -0 0 -0 -0 0 0 0 0 0 0 0 0 0 0 0 0 0 0 0 0 0 0 0 0
-0 -0 -0 -0 -0 -0 0 0 -0 -0 -0 -0 -0 -0 0 0 -0 0 -0 -0 0 0 0 0 -0 0 0 0 0 0 0 0 0 0 0 0 0 0 0 0 0 0 0 0 0
-0 -0 -0 -0 -0 -0 -0 -0 -0 -0 -0 -0 -0 -0 -0 -0 0 -0 0 -0 -0 0 0 0 0 0 0 0 0 0 0 0 0 0 0 0 0 0 0 0 0 0 0 0 0
-0 -0 -0 -0 -0 -0 -0 -0 -0 -0 -0 -0 -0 0 0 0 -0 0 -0 -0 -0 0 0 0 0 0 0 0 0 0 0 0 0 0 0 0 0 0 0 0 0 0 0 0 0
-0 -0 -0 -0 -0 -0 -0 -0 -0 -0 -0 -0 -0 -0 0 -0 -0 -0 -0 -0 -0 -0 0 0 0 0 0 0 0 0 0 0 0 0 0 0 0 0 0 0 0 0 0 0 0
-0 -0 -0 -0 -0 -0 -0 -0 -0 -0 -0 -0 0 0 0 -0 -0 -0 -0 0 0 0 0 0 0 0 0 0 0 0 0 0 0 0 0 0 0 0 0 0 0 0 0 0 0
-0 -0 -0 -0 -0 -0 -0 -0 0 0 0 -0 0 0 -0 0 -0 -0 -0 0 0 0 0 0 0 0 0 0 0 0 0 0 0 0 0 0 0 0 0 0 0 0 0 0 0
-0 -0 -0 -0 -0 0 -0 0 0 0 0 0 0 0 -0 -0 -0 -0 0 0 0 0 0 0 0 0 0 0 0 0 0 0 0 0 0 0 0 0 0 0 0 0 0 0 0
-0 -0 -0 -0 -0 -0 -0 0 0 0 0 0 0 0 -0 -0 0 0 0 0 0 0 0 0 0 0 0 0 0 0 0 0 0 0 0 0 0 0 0 0 0 0 0 0 0
-0 -0 -0 -0 -0 0 0 0 -0 0 0 0 0 0 0 0 0 0 0 0 0 0 0 0 0 0 0 0 0 0 0 0 0 0 0 0 0 0 0 0 0 0 0 0 0
-0 -0 -0 -0 0 0 0 0 -0 -0 0 0 0 0 0 0 0 0 0 0 0 0 0 0 0 0 0 0 0 0 0 0 0 0 0 0 0 0 0 0 0 0 0 0 0
-0 -0 0 0 0 0 0 -0 0 0 0 0 0 0 0 0 0 0 0 0 0 0 0 0 0 0 0 0 0 0 0 0 0 0 0 0 0 0 0 0 0 0 0 0 0
-0 -0 0 0 0 0 0 0 0 0 0 0 0 0 0 0 0 0 0 0 0 0 0 0 0 0 0 0 0 0 0 0 0 0 0 0 0 0 0 0 0 0 0 0 0
-0 0 0 0 0 0 0 0 0 0 0 0 0 0 0 0 0 0 0 0 0 0 0 0 0 0 0 0 0 0 0 0 0 0 0 0 0 0 0 0 0 0 0 0 0
0 0 0 0 0 0 0 0 0 0 0 0 0 0 0 0 0 0 0 0 0 0 0 0 0 0 0 0 0 0 0 0 0 0 0 0 0 0 0 0 0 0 0 0 0
-0 0 0 0 -0 0 0 0 0 0 0 0 0 0 0 0 0 0 0 0 0 0 0 0 0 0 0 0 0 0 0 0 0 0 0 0 0 0 0 -0 0 0 0 0 0
0 0 0 0 0 0 0 0 0 0 0 0 0 0 0 0 0 0 0 0 0 0 0 0 0 0 0 0 0 0 0 0 0 0 0 0 0 0 0 0 0 0 0 0 0
0 0 0 0 0 0 0 0 0 0 0 0 0 0 0 0 0 0 0 0 0 0 0 0 0 0 0 0 0 0 0 0 0 0 0 0 0 0 0 0 0 0 0 0 0
0 0 0 0 0 0 0 0 0 0 0 0 0 0 0 0 0 0 0 0 0 0 0 0 0 0 0 0 0 0 0 0 0 0 0 0 0 0 0 0 0 0 0 0 0
0 0 0 0 0 0 0 0 0 0 0 0 0 0 0 0 0 0 0 0 0 0 0 0 0 0 0 0 0 0 0 0 0 0 0 0 0 0 0 0 0 0 0 0 0
0 0 0 0 0 0 0 0 0 0 0 0 0 0 0 0 0 0 0 0 0 0 0 0 0 0 0 0 0 0 0 0 0 0 0 0 0 0 0 0 0 0 0 0 0
0 0 0 0 0 0 0 0 0 0 0 0 0 0 0 0 0 0 0 0 0 0 0 0 0 0 0 0 0 0 0 0 0 0 0 0 0 0 0 0 0 0 0 0 0
0 0 0 0 0 0 0 0 0 0 0 0 0 0 0 0 0 0 0 0 0 0 0 0 0 0 0 0 0 0 0 0 0 0 0 0 0 0 0 0 0 0 0 -0 0
0 0 0 0 0 0 0 0 0 0 0 0 0 0 0 0 0 0 0 0 0 0 0 0 0 0 0 0 0 0 0 0 0 0 0 0 0 0 0 0 0 -0 0 -0 -0
Wind_Speed_500mb
20 19 20 21 20 19 18 17 25 28 27 25 26 25 37 39 38 40 48 41 38 34 27 25 18 19 21 19 19 8 8 11 6 6 5 12 12 14 10 15 16 16 12 15 17
20 20 21 22 21 19 19 24 30 31 27 24 25 30 41 39 40 45 38 36 30 25 17 13 24 22 17 14 12 11 8 7 4 7 7 11 9 11 9 21 17 23 24 15 14
21 21 22 21 20 19 23 29 32 29 23 24 23 27 33 31 26 28 30 23 29 30 31 17 20 26 16 15 18 8 8 6 4 6 6 5 4 6 5 11 11 16 26 33 29
22 23 22 21 18 22 26 31 30 24 23 23 19 12 17 5 8 16 23 24 30 33 34 45 17 12 10 12 9 9 5 1 3 4 6 5 1 7 7 7 6 14 20 25 28
23 24 23 22 22 24 28 28 25 22 20 22 23 17 18 22 15 12 16 21 25 30 39 35 37 16 13 7 6 15 14 12 15 7 8 4 6 2 8 3 6 14 19 28 34
21 22 21 22 23 25 25 24 21 16 14 17 21 20 26 27 16 14 14 17 22 27 28 29 18 16 13 7 8 6 10 14 6 6 4 4 5 5 7 9 9 15 20 24 28
17 18 18 20 22 19 18 16 13 9 8 8 11 12 16 14 12 12 18 19 22 29 30 26 13 11 5 6 6 3 2 5 8 12 5 4 9 10 2 11 13 18 24 26 26
12 12 13 16 18 16 13 9 7 2 3 6 8 7 8 11 12 14 14 13 15 20 25 25 12 18 8 4 6 6 3 12 15 14 2 11 21 24 8 13 22 27 27 26 25
11 6 9 12 13 10 7 5 3 6 5 6 5 6 7 4 3 2 2 5 8 10 15 19 9 10 6 4 3 10 12 19 15 15 9 7 24 27 27 29 32 40 22 13 15
17 2 6 8 8 7 5 6 9 4 5 5 4 8 3 2 3 6 7 11 10 9 4 12 8 4 4 7 10 11 10 9 19 10 9 26 27 29 43 38 46 44 18 3 10
23 6 6 10 5 2 8 2 4 1 7 4 6 5 10 2 9 5 12 14 14 5 2 6 4 4 1 6 6 10 9 16 17 12 20 31 35 38 51 44 41 27 11 5 5
24 12 4 11 6 3 7 11 13 7 8 6 2 7 7 7 3 17 7 5 4 7 6 4 12 7 8 8 10 11 11 19 15 14 23 35 46 37 32 28 16 12 8 6 3
23 12 5 15 8 9 10 15 12 13 1 6 9 11 8 9 10 16 13 4 5 7 8 12 11 4 7 7 10 8 12 7 16 26 25 24 31 4 3 13 10 7 5 5 2
25 9 5 17 10 9 5 10 15 6 3 3 3 8 10 5 6 28 20 2 2 8 7 10 5 4 5 5 5 13 7 12 22 26 24 8 18 6 7 13 13 8 9 7 4
23 7 6 20 10 11 5 18 4 2 6 4 6 7 15 8 8 18 17 9 8 6 4 5 8 9 7 3 7 8 10 19 23 25 11 10 11 1 6 17 13 14 12 11 8
23 13 10 14 7 2 14 11 4 2 5 4 7 9 6 15 8 19 18 14 4 3 3 4 8 2 3 4 2 6 11 22 2 4 9 8 4 9 9 8 10 8 12 14 15
24 23 25 19 10 13 10 7 3 2 4 5 5 6 6 7 4 13 11 11 8 10 10 16 4 0 1 7 5 5 16 9 6 5 10 11 15 21 25 24 28 26 24 19 21
30 30 24 18 15 14 6 3 4 1 4 1 4 2 3 14 6 14 9 5 6 6 3 6 8 6 1 22 17 6 4 5 12 10 27 23 18 7 9 10 10 12 12 21 27
15 20 22 20 18 13 3 7 3 3 6 6 2 3 2 2 7 11 5 4 3 3 5 8 10 10 28 10 6 8 10 3 9 8 11 10 12 20 29 24 17 24 21 20 22
6 6 27 20 17 9 8 6 4 6 6 1 2 0 3 2 5 12 7 5 3 3 1 3 19 13 6 5 6 13 13 6 4 9 13 19 26 23 19 18 20 29 36 14 32
1 2 27 16 12 11 6 4 3 7 11 2 3 4 4 2 4 7 6 3 3 6 5 6 6 7 6 13 25 10 9 7 8 9 11 22 18 7 21 26 27 32 22 36 31
6 4 30 14 10 7 5 7 12 9 17 9 3 2 2 0 5 6 7 7 6 7 13 0 6 19 36 43 20 20 28 27 13 16 14 24 36 25 27 19 24 36 47 32 29
7 8 23 9 6 6 7 4 9 15 11 10 8 10 7 1 6 8 8 9 7 4 9 4 5 12 15 6 6 7 8 24 21 12 35 31 26 7 19 36 46 30 31 36 46
9 4 17 26 17 5 7 7 8 13 5 9 3 8 6 4 4 10 18 10 6 18 29 13 14 22 22 37 36 43 42 41 29 13 34 41 55 49 43 42 39 29 34 45 57
15 8 8 7 10 8 3 5 7 10 7 9 4 13 9 7 18 15 8 16 29 23 1 5 16 23 33 43 44 45 48 48 39 47 32 51 49 48 42 22 31 34 44 58 61
10 7 8 2 6 3 5 4 6 8 5 3 3 13 14 13 20 34 22 10 14 7 3 7 18 28 40 32 28 29 38 41 41 40 32 37 45 15 24 30 46 49 61 71 70
24 16 5 1 2 3 2 4 5 9 5 9 7 22 22 17 15 37 43 49 41 33 32 15 9 8 25 19 34 28 11 16 27 22 17 15 34 26 29 43 50 64 72 66 65
Wind_Direction_500mb
65 57 49 42 38 39 48 75 109 111 100 81 61 86 102 91 80 71 56 50 47 39 45 69 83 90 74 56 44 43 80 101 102 102 56 360 5 354 353 9 49 24 33 346 353
58 49 39 33 35 45 63 98 112 110 97 71 67 106 107 92 78 60 50 51 47 31 34 67 77 91 69 36 26 45 86 81 42 103 16 323 321 341 356 25 25 43 29 14 9
51 40 33 27 36 60 85 106 113 108 86 75 85 119 125 115 67 44 44 51 47 45 44 44 108 79 63 45 11 32 60 135 169 234 310 260 272 342 357 53 36 27 24 32 35
42 34 30 35 56 78 98 111 112 101 86 68 69 104 176 260 78 63 55 61 59 56 54 58 104 65 67 53 21 102 36 284 312 227 297 246 215 121 98 121 66 33 21 17 11
38 32 37 53 75 90 107 113 110 100 79 66 61 88 103 95 103 86 62 67 69 55 49 52 57 77 71 76 96 45 1 333 316 313 242 201 360 138 221 192 8 3 351 347 342
36 38 48 67 82 97 110 117 114 98 77 67 59 91 100 87 107 104 74 69 62 46 41 45 50 83 87 73 58 338 330 333 5 3 309 223 330 172 251 245 307 326 329 331 329
35 43 57 76 84 96 109 119 119 97 71 49 54 61 94 86 101 91 87 78 52 41 41 38 43 60 91 113 1 358 20 19 16 6 19 313 218 270 231 250 307 313 315 312 314
30 47 70 88 86 90 102 125 151 135 36 29 22 71 114 100 91 99 93 75 53 40 37 35 73 89 70 103 39 37 71 348 356 343 47 337 301 307 334 318 304 306 299 305 312
30 59 98 101 89 77 100 82 248 238 287 323 356 73 116 82 98 94 27 21 13 18 25 24 62 70 46 50 77 35 331 331 324 350 340 353 304 305 301 303 296 298 297 325 353
19 66 145 140 109 72 22 302 351 226 281 309 62 124 133 43 348 295 314 311 308 319 346 25 56 97 104 25 6 319 306 295 304 336 334 306 293 300 297 287 283 282 286 328 13
13 15 180 183 170 13 352 357 348 67 322 283 285 278 269 320 301 323 286 282 281 266 256 30 316 359 289 203 211 226 237 271 295 303 320 301 297 296 296 289 283 287 245 359 333
4 5 183 176 161 49 59 87 52 349 318 10 304 250 266 287 2 19 346 232 207 270 148 236 286 212 185 210 231 231 275 301 288 297 313 305 297 302 288 273 290 282 225 308 335
356 348 180 162 152 126 74 62 23 352 331 11 77 60 43 81 39 18 22 308 239 246 221 250 287 147 239 238 246 250 269 260 297 317 287 288 289 258 272 267 238 218 219 212 299
352 335 184 173 165 165 65 12 341 348 68 17 57 40 359 136 105 37 17 349 196 281 199 258 342 286 293 255 212 282 198 286 288 312 307 356 298 261 265 264 276 218 211 226 241
4 2 160 175 146 152 358 343 6 150 146 63 61 59 49 81 321 18 24 357 292 310 233 301 341 330 296 103 199 306 311 294 293 287 278 202 253 129 285 268 284 236 252 241 246
28 56 110 162 143 98 328 334 117 179 129 70 43 17 39 13 29 349 12 5 33 53 46 295 297 266 101 71 100 328 301 291 170 238 246 141 246 266 249 261 265 239 241 257 248
51 86 97 97 75 356 344 151 130 73 312 39 17 1 105 9 6 8 2 30 30 355 3 322 21 23 98 340 298 317 329 316 282 245 292 163 287 271 281 269 268 277 276 269 262
80 92 84 58 21 8 83 108 101 108 44 76 25 105 71 3 33 348 11 35 78 77 306 332 304 343 170 329 295 290 259 264 291 292 297 273 250 241 242 272 283 257 260 275 263
92 77 52 31 11 7 99 65 92 47 330 353 345 72 106 31 353 348 7 266 185 121 8 299 249 293 296 303 219 155 220 349 271 267 268 240 256 271 272 260 248 243 299 285 288
112 55 21 11 7 36 76 110 97 41 333 84 263 316 294 323 318 350 315 190 190 182 43 307 297 271 284 255 204 246 152 212 213 270 261 268 268 270 282 261 290 299 309 301 323
229 88 4 359 10 54 79 72 25 8 19 317 215 239 213 257 238 303 270 272 201 147 213 287 222 274 279 244 277 230 219 210 275 232 264 290 273 224 287 295 296 308 314 321 320
40 59 1 1 37 31 58 345 349 351 20 20 84 84 310 242 266 265 253 259 165 331 315 20 242 275 273 276 292 259 262 251 236 238 233 275 276 290 281 286 322 308 308 315 315
46 24 21 41 65 31 349 13 38 12 24 15 45 42 17 301 303 245 252 278 244 246 332 184 254 303 286 189 141 227 223 239 251 274 259 266 269 251 271 296 318 323 316 317 317
25 32 27 56 74 74 13 10 352 11 91 4 46 81 35 315 247 278 272 291 330 303 301 251 236 232 264 288 295 288 279 266 253 258 268 261 276 288 295 301 319 314 317 315 314
39 60 18 1 36 52 9 359 355 355 1 360 111 74 36 301 295 266 271 291 292 299 238 255 264 272 277 282 284 280 280 282 266 262 259 278 287 292 308 322 320 317 314 312 306
60 10 354 22 322 336 8 51 15 333 282 346 294 341 321 266 262 292 295 270 274 330 42 336 284 300 296 285 286 287 279 276 281 280 269 274 284 321 316 311 317 320 318 310 308
34 17 24 346 345 285 72 100 334 328 256 264 350 328 298 294 292 281 275 268 267 277 282 274 288 295 290 312 306 285 329 322 306 300 310 285 302 320 318 319 319 318 311 307 308
Wind_Speed_850mb
20 19 20 21 20 19 18 17 25 28 27 25 26 25 37 39 38 40 48 41 38 34 27 25 18 19 21 19 19 8 8 11 6 6 5 12 12 14 10 15 16 16 12 15 17
20 20 21 22 21 19 19 24 30 31 27 24 25 30 41 39 40 45 38 36 30 25 17 13 24 22 17 14 12 11 8 7 4 7 7 11 9 11 9 21 17 23 24 15 14
21 21 22 21 20 19 23 29 32 29 23 24 23 27 33 31 26 28 30 23 29 30 31 17 20 26 16 15 18 8 8 6 4 6 6 5 4 6 5 11 11 16 26 33 29
22 23 22 21 18 22 26 31 30 24 23 23 19 12 17 5 8 16 23 24 30 33 34 45 17 12 10 12 9 9 5 1 3 4 6 5 1 7 7 7 6 14 20 25 28
23 24 23 22 22 24 28 28 25 22 20 22 23 17 18 22 15 12 16 21 25 30 39 35 37 16 13 7 6 15 14 12 15 7 8 4 6 2 8 3 6 14 19 28 34
21 22 21 22 23 25 25 24 21 16 14 17 21 20 26 27 16 14 14 17 22 27 28 29 18 16 13 7 8 6 10 14 6 6 4 4 5 5 7 9 9 15 20 24 28
17 18 18 20 22 19 18 16 13 9 8 8 11 12 16 14 12 12 18 19 22 29 30 26 13 11 5 6 6 3 2 5 8 12 5 4 9 10 2 11 13 18 24 26 26
12 12 13 16 18 16 13 9 7 2 3 6 8 7 8 11 12 14 14 13 15 20 25 25 12 18 8 4 6 6 3 12 15 14 2 11 21 24 8 13 22 27 27 26 25
11 6 9 12 13 10 7 5 3 6 5 6 5 6 7 4 3 2 2 5 8 10 15 19 9 10 6 4 3 10 12 19 15 15 9 7 24 27 27 29 32 40 22 13 15
17 2 6 8 8 7 5 6 9 4 5 5 4 8 3 2 3 6 7 11 10 9 4 12 8 4 4 7 10 11 10 9 19 10 9 26 27 29 43 38 46 44 18 3 10
23 6 6 10 5 2 8 2 4 1 7 4 6 5 10 2 9 5 12 14 14 5 2 6 4 4 1 6 6 10 9 16 17 12 20 31 35 38 51 44 41 27 11 5 5
24 12 4 11 6 3 7 11 13 7 8 6 2 7 7 7 3 17 7 5 4 7 6 4 12 7 8 8 10 11 11 19 15 14 23 35 46 37 32 28 16 12 8 6 3
23 12 5 15 8 9 10 15 12 13 1 6 9 11 8 9 10 16 13 4 5 7 8 12 11 4 7 7 10 8 12 7 16 26 25 24 31 4 3 13 10 7 5 5 2
25 9 5 17 10 9 5 10 15 6 3 3 3 8 10 5 6 28 20 2 2 8 7 10 5 4 5 5 5 13 7 12 22 26 24 8 18 6 7 13 13 8 9 7 4
23 7 6 20 10 11 5 18 4 2 6 4 6 7 15 8 8 18 17 9 8 6 4 5 8 9 7 3 7 8 10 19 23 25 11 10 11 1 6 17 13 14 12 11 8
23 13 10 14 7 2 14 11 4 2 5 4 7 9 6 15 8 19 18 14 4 3 3 4 8 2 3 4 2 6 11 22 2 4 9 8 4 9 9 8 10 8 12 14 15
24 23 25 19 10 13 10 7 3 2 4 5 5 6 6 7 4 13 11 11 8 10 10 16 4 0 1 7 5 5 16 9 6 5 10 11 15 21 25 24 28 26 24 19 21
30 30 24 18 15 14 6 3 4 1 4 1 4 2 3 14 6 14 9 5 6 6 3 6 8 6 1 22 17 6 4 5 12 10 27 23 18 7 9 10 10 12 12 21 27
15 20 22 20 18 13 3 7 3 3 6 6 2 3 2 2 7 11 5 4 3 3 5 8 10 10 28 10 6 8 10 3 9 8 11 10 12 20 29 24 17 24 21 20 22
6 6 27 20 17 9 8 6 4 6 6 1 2 0 3 2 5 12 7 5 3 3 1 3 19 13 6 5 6 13 13 6 4 9 13 19 26 23 19 18 20 29 36 14 32
1 2 27 16 12 11 6 4 3 7 11 2 3 4 4 2 4 7 6 3 3 6 5 6 6 7 6 13 25 10 9 7 8 9 11 22 18 7 21 26 27 32 22 36 31
6 4 30 14 10 7 5 7 12 9 17 9 3 2 2 0 5 6 7 7 6 7 13 0 6 19 36 43 20 20 28 27 13 16 14 24 36 25 27 19 24 36 47 32 29
7 8 23 9 6 6 7 4 9 15 11 10 8 10 7 1 6 8 8 9 7 4 9 4 5 12 15 6 6 7 8 24 21 12 35 31 26 7 19 36 46 30 31 36 46
9 4 17 26 17 5 7 7 8 13 5 9 3 8 6 4 4 10 18 10 6 18 29 13 14 22 22 37 36 43 42 41 29 13 34 41 55 49 43 42 39 29 34 45 57
15 8 8 7 10 8 3 5 7 10 7 9 4 13 9 7 18 15 8 16 29 23 1 5 16 23 33 43 44 45 48 48 39 47 32 51 49 48 42 22 31 34 44 58 61
10 7 8 2 6 3 5 4 6 8 5 3 3 13 14 13 20 34 22 10 14 7 3 7 18 28 40 32 28 29 38 41 41 40 32 37 45 15 24 30 46 49 61 71 70
24 16 5 1 2 3 2 4 5 9 5 9 7 22 22 17 15 37 43 49 41 33 32 15 9 8 25 19 34 28 11 16 27 22 17 15 34 26 29 43 50 64 72 66 65
Wind_Direction_850mb
65 57 49 42 38 39 48 75 109 111 100 81 61 86 102 91 80 71 56 50 47 39 45 69 83 90 74 56 44 43 80 101 102 102 56 360 5 354 353 9 49 24 33 346 353
58 49 39 33 35 45 63 98 112 110 97 71 67 106 107 92 78 60 50 51 47 31 34 67 77 91 69 36 26 45 86 81 42 103 16 323 321 341 356 25 25 43 29 14 9
51 40 33 27 36 60 85 106 113 108 86 75 85 119 125 115 67 44 44 51 47 45 44 44 108 79 63 45 11 32 60 135 169 234 310 260 272 342 357 53 36 27 24 32 35
42 34 30 35 56 78 98 111 112 101 86 68 69 104 176 260 78 63 55 61 59 56 54 58 104 65 67 53 21 102 36 284 312 227 297 246 215 121 98 121 66 33 21 17 11
38 32 37 53 75 90 107 113 110 100 79 66 61 88 103 95 103 86 62 67 69 55 49 52 57 77 71 76 96 45 1 333 316 313 242 201 360 138 221 192 8 3 351 347 342
36 38 48 67 82 97 110 117 114 98 77 67 59 91 100 87 107 104 74 69 62 46 41 45 50 83 87 73 58 338 330 333 5 3 309 223 330 172 251 245 307 326 329 331 329
35 43 57 76 84 96 109 119 119 97 71 49 54 61 94 86 101 91 87 78 52 41 41 38 43 60 91 113 1 358 20 19 16 6 19 313 218 270 231 250 307 313 315 312 314
30 47 70 88 86 90 102 125 151 135 36 29 22 71 114 100 91 99 93 75 53 40 37 35 73 89 70 103 39 37 71 348 356 343 47 337 301 307 334 318 304 306 299 305 312
30 59 98 101 89 77 100 82 248 238 287 323 356 73 116 82 98 94 27 21 13 18 25 24 62 70 46 50 77 35 331 331 324 350 340 353 304 305 301 303 296 298 297 325 353
19 66 145 140 109 72 22 302 351 226 281 309 62 124 133 43 348 295 314 311 308 319 346 25 56 97 104 25 6 319 306 295 304 336 334 306 293 300 297 287 283 282 286 328 13
13 15 180 183 170 13 352 357 348 67 322 283 285 278 269 320 301 323 286 282 281 266 256 30 316 359 289 203 211 226 237 271 295 303 320 301 297 296 296 289 283 287 245 359 333
4 5 183 176 161 49 59 87 52 349 318 10 304 250 266 287 2 19 346 232 207 270 148 236 286 212 185 210 231 231 275 301 288 297 313 305 297 302 288 273 290 282 225 308 335
356 348 180 162 152 126 74 62 23 352 331 11 77 60 43 81 39 18 22 308 239 246 221 250 287 147 239 238 246 250 269 260 297 317 287 288 289 258 272 267 238 218 219 212 299
352 335 184 173 165 165 65 12 341 348 68 17 57 40 359 136 105 37 17 349 196 281 199 258 342 286 293 255 212 282 198 286 288 312 307 356 298 261 265 264 276 218 211 226 241
4 2 160 175 146 152 358 343 6 150 146 63 61 59 49 81 321 18 24 357 292 310 233 301 341 330 296 103 199 306 311 294 293 287 278 202 253 129 285 268 284 236 252 241 246
28 56 110 162 143 98 328 334 117 179 129 70 43 17 39 13 29 349 12 5 33 53 46 295 297 266 101 71 100 328 301 291 170 238 246 141 246 266 249 261 265 239 241 257 248
51 86 97 97 75 356 344 151 130 73 312 39 17 1 105 9 6 8 2 30 30 355 3 322 21 23 98 340 298 317 329 316 282 245 292 163 287 271 281 269 268 277 276 269 262
80 92 84 58 21 8 83 108 101 108 44 76 25 105 71 3 33 348 11 35 78 77 306 332 304 343 170 329 295 290 259 264 291 292 297 273 250 241 242 272 283 257 260 275 263
92 77 52 31 11 7 99 65 92 47 330 353 345 72 106 31 353 348 7 266 185 121 8 299 249 293 296 303 219 155 220 349 271 267 268 240 256 271 272 260 248 243 299 285 288
112 55 21 11 7 36 76 110 97 41 333 84 263 316 294 323 318 350 315 190 190 182 43 307 297 271 284 255 204 246 152 212 213 270 261 268 268 270 282 261 290 299 309 301 323
229 88 4 359 10 54 79 72 25 8 19 317 215 239 213 257 238 303 270 272 201 147 213 287 222 274 279 244 277 230 219 210 275 232 264 290 273 224 287 295 296 308 314 321 320
40 59 1 1 37 31 58 345 349 351 20 20 84 84 310 242 266 265 253 259 165 331 315 20 242 275 273 276 292 259 262 251 236 238 233 275 276 290 281 286 322 308 308 315 315
46 24 21 41 65 31 349 13 38 12 24 15 45 42 17 301 303 245 252 278 244 246 332 184 254 303 286 189 141 227 223 239 251 274 259 266 269 251 271 296 318 323 316 317 317
25 32 27 56 74 74 13 10 352 11 91 4 46 81 35 315 247 278 272 291 330 303 301 251 236 232 264 288 295 288 279 266 253 258 268 261 276 288 295 301 319 314 317 315 314
39 60 18 1 36 52 9 359 355 355 1 360 111 74 36 301 295 266 271 291 292 299 238 255 264 272 277 282 284 280 280 282 266 262 259 278 287 292 308 322 320 317 314 312 306
60 10 354 22 322 336 8 51 15 333 282 346 294 341 321 266 262 292 295 270 274 330 42 336 284 300 296 285 286 287 279 276 281 280 269 274 284 321 316 311 317 320 318 310 308
34 17 24 346 345 285 72 100 334 328 256 264 350 328 298 294 292 281 275 268 267 277 282 274 288 295 290 312 306 285 329 322 306 300 310 285 302 320 318 319 319 318 311 307 308